loading
|
Showing default

OV2-1, 1641

Orbit data source: Space-Track

OV2-1, 1641 is a payload satellite owned by USAF SSD (US) in LEO that was launched on Fri, 15 Oct 1965 UTC via a TITAN IIIC launch vehicle from the Air Force Eastern Test Range (AFETR). Payloads include a variety of satellites, spacecraft, and rockets equipped with specific instruments for various scientific and technological missions. These include communications satellites like Starlink; space stations such as the ISS; scientific satellites like the Hubble; Earth observation satellites from companies like Planet Labs, Umbra, and HawkEye 360; GPS; miniature CubeSats for education and research; and military/defense satellites.

Loading next visibility...
Next conjunction unknown
Loading greatness...
OV2-1 details
Identifier
1641, 1965-082C
Orbit
LEO
Last TLE update9 hours ago
Origin
Flag of USUSAF SSD (US)
ManufacturerNorthrop
MissionNon-operational Civil Science
Bus & MotorOV2, Unknown motor
Mass170 kg wet, 170 kg dry
Launch date (UTC)
1965-10-15 (59 years ago)
Launch vehicle
TITAN IIIC
Launch site
Air Force Eastern Test Range (AFETR)
Object type
Payload
Rocket body
Debris
Shape & HBRCyl, Unknown HBR
Radar Cross Section0.424 m², Medium (>0.1 m² and < 1m²)

Expand to show TLE details & history

TLE from 9 hours ago
0 OV2-1
1 01641U 65082C   24286.43675304  .00001398  00000-0  31694-3 0  9994
2 01641  32.2953 195.6731 0018663 171.3919 188.7049 14.54209268128015
Epoch: 2024-10-12T10:28Z
Definitive object data (Epoch: 2024-10-12T10:28:55.462Z)
Latitude-0.00003°
Longitude16.94935°
Altitude723.682 km
Speed7.489 km/s
True Right ascension13h 02m 41s
True Declination0° 00' 00"
Sunlit
Object was in daylight at TLE epoch
Predictive object data (real-time)
Latitude-30.83707°
Longitude-95.37032°
Altitude716.418 km
Speed7.5 km/s
Apparent Right ascension04h 07m 43s
Apparent Declination-37° 26' 53"
Sunlit
Object is in daylight
Predictive observer data (real-time)
Local Sidereal Time14:19:35
Azimuth268° W
Elevation-68.834°
Doppler factor1
Orbital elements
Apogee728.73 km
Perigee702.253 km
Semi-major axis7,093.628 km
Eccentricity0.0018663
Inclination32.2953°
RAAN195.6731°
Arg. of periapsis171.3919°
True anomaly188.67261°
Mean anomaly188.7049°
Eccentric anomaly188.68875°
Mean motion3.63279 °/min
BSTAR0.00031694
Period99.1 mins
No data available

OV2-1 Visibility forecast

Observer location: 39.9160978°, -105.1181434

Span
Click to sort rows by Start time (UTC) header in descending order
Start Az.
Max El. time (UTC)
Max El. Az.
Max El.
End time (UTC)
End Az.
7 mins2024-10-12 22:15:32.858Z211.462° SW2024-10-12 22:19:32.858Z155.723° SSE21.437°2024-10-12 22:22:32.858Z115.771° SE
7 mins2024-10-13 00:00:32.858Z230.996° WSW2024-10-13 00:03:32.858Z177.495° S29.524°2024-10-13 00:07:32.858Z116.364° SE
6 mins2024-10-13 01:45:32.858Z234.711° WSW2024-10-13 01:47:32.858Z201.829° SSW24.96°2024-10-13 01:51:32.858Z139.406° SSE